Location: G�ndlingen
(48.0142°N, 7.6396°E)
Time: 19:19:32
(UTC+00:00)

SeaSat 1 - Pass Details

Date: 05 July 2020
Orbit: 744 x 748 km, 108.0° (Epoch: 11 August)

Event Time Altitude Azimuth Distance (km) Brightness Sun altitude
Rises 23:43:30 0° 42° (NE) 3,200 6.5 -19.3°
Reaches altitude 10° 23:46:27 10° 60° (ENE) 2,271 5.4 -19.3°
Maximum altitude 23:49:53 19° 105° (ESE) 1,743 4.2 -19.2°
Enters shadow 23:51:17 17° 126° (SE) 1,840 4.2 -19.2°
